Weather reports worldwide

Advertisment
Geneve-Cointrin, Switzerland (6700): temperature & dewpoint: 19.04.2019 14:00:00 - 25.04.2019 14:00:00 (CEST)Geneve-Cointrin, Switzerland (6700): temperature 5cm: 19.04.2019 14:00:00 - 25.04.2019 14:00:00 (CEST)Geneve-Cointrin, Switzerland (6700): wind speed & gusts: 19.04.2019 14:00:00 - 25.04.2019 14:00:00 (CEST)Geneve-Cointrin, Switzerland (6700): wind direction: 19.04.2019 14:00:00 - 25.04.2019 14:00:00 (CEST)Geneve-Cointrin, Switzerland (6700): reduced air pressure: 19.04.2019 14:00:00 - 25.04.2019 14:00:00 (CEST)Geneve-Cointrin, Switzerland (6700): visibility: 19.04.2019 14:00:00 - 25.04.2019 14:00:00 (CEST)Geneve-Cointrin, Switzerland (6700): sunshine duration: 19.04.2019 14:00:00 - 25.04.2019 14:00:00 (CEST)Geneve-Cointrin, Switzerland (6700): precipitation: 19.04.2019 14:00:00 - 25.04.2019 14:00:00 (CEST)
Date & Time tt [°C] td [°C] tt 5cm [°C] ff [km/h] ff [kn] fx [km/h] fx [kn] dd ppp [hPa] vv [km] sd [min] rr [mm]
25.04.2019 14:00:00 17,1 6,2 20,5 8 4 22 12 E 1006,4 45 0 0,0
25.04.2019 13:00:00 16,8 5,8 23,1 8 4 19 11 NE 1006,6 - 54 0,0
25.04.2019 12:00:00 14,8 5,6 22,4 6 4 22 12 ENE 1007,3 - 60 0,0
25.04.2019 11:00:00 12,9 6,0 19,6 9 5 21 11 E 1007,9 50 60 0,0
25.04.2019 10:00:00 11,5 6,0 18,4 11 6 19 10 ENE 1008,3 - 60 0,0
25.04.2019 09:00:00 10,6 6,9 15,6 6 4 11 6 NE 1008,7 - 60 0,0
25.04.2019 08:00:00 8,9 6,8 10,9 4 2 11 6 NE 1009,4 50 40 0,0
25.04.2019 07:00:00 7,3 6,5 6,5 6 4 10 6 N 1009,7 - 0 0,0
25.04.2019 06:00:00 6,9 6,1 5,3 4 2 7 4 N 1010,1 - 0 0,0
25.04.2019 05:00:00 7,1 6,3 5,1 5 3 12 6 NNE 1010,0 - 0 0,0
25.04.2019 04:00:00 7,2 6,2 4,3 8 4 13 7 N 1010,1 - 0 0,0
25.04.2019 03:00:00 6,9 5,8 3,1 6 4 11 6 NNE 1009,7 - 0 0,0
25.04.2019 02:00:00 7,6 6,1 4,9 8 4 12 7 N 1009,6 - 0 0,0
25.04.2019 01:00:00 8,6 6,8 6,7 5 3 14 8 N 1009,2 - 0 0,0
25.04.2019 00:00:00 7,9 6,1 5,6 6 3 12 6 N 1008,8 - 0 0,0
24.04.2019 23:00:00 9,2 6,7 6,3 5 3 10 5 N 1008,6 50 0 0,0
24.04.2019 22:00:00 9,9 6,8 7,6 7 4 27 15 NE 1008,1 - 0 0,0
24.04.2019 21:00:00 11,3 6,1 8,9 5 3 31 17 WNW 1006,9 - 0 0,0
24.04.2019 20:00:00 13,4 6,7 13,3 3 2 13 7 SSW 1005,8 60 59 0,0
24.04.2019 19:00:00 14,7 5,6 16,9 7 4 18 10 WNW 1005,3 - 60 0,0
24.04.2019 18:00:00 13,2 6,3 17,0 8 4 29 16 WSW 1005,9 - 45 0,0
24.04.2019 17:00:00 9,7 6,4 8,1 18 10 59 32 W 1007,2 50 0 0,6
24.04.2019 16:00:00 9,8 6,1 8,3 35 19 70 38 SW 1008,1 - 0 2,2
24.04.2019 15:00:00 11,1 7,5 10,3 41 22 65 35 SW 1006,8 - 0 0,7
24.04.2019 14:00:00 14,9 9,6 14,3 18 10 41 22 WSW 1004,2 15 0 0,0
24.04.2019 13:00:00 17,4 7,7 17,5 29 16 44 24 SW 1002,8 - 0 0,0
24.04.2019 12:00:00 17,7 7,6 20,8 6 4 18 10 E 1001,8 - 0 0,0
24.04.2019 11:00:00 17,0 7,4 19,4 8 4 16 9 ENE 1002,0 35 33 0,0
24.04.2019 10:00:00 16,8 8,8 22,8 6 4 14 8 E 1001,5 - 60 0,0
24.04.2019 09:00:00 14,7 9,1 18,4 4 2 9 5 NNE 1001,3 - 60 0,0
24.04.2019 08:00:00 12,9 9,5 11,9 3 1 7 4 N 1001,9 50 9 0,0
24.04.2019 07:00:00 11,5 8,9 7,5 2 1 10 5 NE 1001,5 - 0 0,0
24.04.2019 06:00:00 12,8 8,4 9,3 7 4 17 9 W 1000,9 - 0 0,0
24.04.2019 05:00:00 13,6 9,0 11,3 13 7 20 11 W 1001,0 - 0 0,0
24.04.2019 04:00:00 14,5 9,3 11,9 9 5 18 10 WSW 1000,8 - 0 0,0
24.04.2019 03:00:00 14,3 9,7 12,1 9 5 18 10 SW 1000,6 - 0 0,0
24.04.2019 02:00:00 13,9 9,7 11,8 6 3 19 11 W 1000,6 - 0 0,0
24.04.2019 01:00:00 16,2 9,6 14,8 11 6 24 13 SW 1000,1 - 0 0,0
24.04.2019 00:00:00 17,4 9,0 16,1 16 8 26 14 SW 999,0 - 0 0,0
23.04.2019 23:00:00 17,6 8,9 15,8 19 10 26 14 SSW 998,6 23 0 0,0
23.04.2019 22:00:00 18,1 8,9 16,2 17 9 26 14 SW 998,0 - 0 0,0
23.04.2019 21:00:00 18,6 8,4 16,1 10 5 26 14 WSW 996,7 - 0 0,0
23.04.2019 20:00:00 19,5 8,4 17,5 17 9 26 14 SW 996,0 40 25 0,0
23.04.2019 19:00:00 20,6 4,2 19,4 7 4 15 8 W 995,6 - 0 0,0
23.04.2019 18:00:00 21,3 2,3 21,7 10 6 21 11 NE 995,1 - 18 0,0
23.04.2019 17:00:00 22,9 2,7 29,1 10 5 21 11 ENE 994,9 45 31 0,0
23.04.2019 16:00:00 22,6 2,3 25,3 16 9 22 12 ENE 995,0 - 46 0,0
23.04.2019 15:00:00 22,4 2,1 28,8 10 5 18 10 ENE 995,3 - 58 0,0
23.04.2019 14:00:00 21,9 2,9 29,9 7 4 16 9 SW 995,5 45 55 0,0
23.04.2019 13:00:00 20,3 3,9 25,7 8 4 24 13 S 996,1 - 8 0,0
23.04.2019 12:00:00 19,5 2,8 23,7 11 6 22 12 SSW 996,8 - 56 0,0
23.04.2019 11:00:00 18,3 4,9 21,9 10 5 15 8 SW 997,1 35 15 0,0
23.04.2019 10:00:00 16,1 6,1 18,3 4 2 11 6 W 997,5 - 2 0,0
23.04.2019 09:00:00 15,1 4,5 14,8 3 2 5 3 N 997,6 - 0 0,0
23.04.2019 08:00:00 14,5 4,4 12,5 1 0 5 3 SW 997,4 25 0 0,0
23.04.2019 07:00:00 13,8 4,1 11,1 5 3 10 6 NW 997,8 - 0 0,0
23.04.2019 06:00:00 15,0 3,0 12,0 10 5 21 11 ESE 997,6 - 0 0,0
23.04.2019 05:00:00 14,3 4,0 12,7 4 2 12 7 W 998,0 - 0 0,0
23.04.2019 04:00:00 15,4 2,1 13,5 7 4 18 10 WSW 998,2 - 0 0,0
23.04.2019 03:00:00 17,1 0,4 14,1 11 6 33 18 WSW 998,3 - 0 0,0
23.04.2019 02:00:00 17,6 0,4 15,2 20 11 29 16 WSW 998,2 - 0 0,0
23.04.2019 01:00:00 15,5 3,1 11,4 11 6 22 12 SW 999,0 - 0 0,0
23.04.2019 00:00:00 16,3 4,2 13,1 11 6 17 9 W 998,8 - 0 0,0
22.04.2019 23:00:00 17,2 5,9 12,8 4 2 10 5 SW 998,8 25 0 0,0
22.04.2019 22:00:00 17,2 7,5 13,3 3 2 8 5 WSW 998,9 - 0 0,0
22.04.2019 21:00:00 17,0 7,9 13,6 2 1 5 3 NNW 998,8 - 0 0,0
22.04.2019 20:00:00 19,7 6,4 15,8 2 1 4 2 SSE 998,6 35 0 0,0
22.04.2019 19:00:00 22,0 4,2 19,6 3 2 10 6 NNE 998,6 - 0 0,0
22.04.2019 18:00:00 22,3 3,4 21,2 6 4 18 10 NE 999,1 - 0 0,0
22.04.2019 17:00:00 22,9 3,5 26,0 10 5 20 11 NE 999,5 40 50 0,0
22.04.2019 16:00:00 22,8 2,1 28,7 14 7 24 13 NNE 1000,2 - 60 0,0
22.04.2019 15:00:00 22,6 4,3 27,7 15 8 26 14 NE 1001,1 - 60 0,0
22.04.2019 14:00:00 21,2 3,4 27,1 17 9 26 14 NE 1002,4 50 60 0,0
22.04.2019 13:00:00 19,8 3,7 26,1 10 6 21 12 ENE 1003,8 - 49 0,0
22.04.2019 12:00:00 17,5 3,3 21,6 7 4 14 8 NE 1005,1 - 20 0,0
22.04.2019 11:00:00 17,3 3,7 22,4 9 5 15 8 NE 1005,9 45 39 0,0
22.04.2019 10:00:00 15,6 4,8 23,4 5 3 12 6 E 1006,8 - 59 0,0
22.04.2019 09:00:00 13,3 6,2 15,9 3 2 13 7 NNE 1007,9 - 0 0,0
22.04.2019 08:00:00 10,5 7,2 10,1 4 2 7 4 NNW 1009,2 40 0 0,0
22.04.2019 07:00:00 10,8 6,3 8,1 5 3 13 7 NE 1009,4 - 0 0,0
22.04.2019 06:00:00 10,4 8,3 9,2 6 3 20 11 NNW 1009,9 - 0 0,0
22.04.2019 05:00:00 10,9 7,3 9,4 4 2 10 6 NW 1010,6 - 0 0,0
22.04.2019 04:00:00 10,3 6,5 8,5 3 2 8 4 SW 1011,7 - 0 0,0
22.04.2019 03:00:00 10,4 6,7 9,0 5 3 8 5 NW 1012,3 - 0 0,0
22.04.2019 02:00:00 10,4 5,9 7,7 2 1 4 2 E 1012,4 - 0 0,0
22.04.2019 01:00:00 10,6 5,7 8,3 1 1 5 3 SSW 1012,7 - 0 0,0
22.04.2019 00:00:00 10,7 5,5 6,9 3 2 6 4 N 1013,0 - 0 0,0
21.04.2019 23:00:00 11,1 5,2 6,8 1 1 5 3 E 1013,5 35 0 0,0
21.04.2019 22:00:00 12,5 5,5 7,4 1 1 5 3 NE 1013,7 - 0 0,0
21.04.2019 21:00:00 13,7 5,3 8,7 4 2 8 5 ENE 1013,3 - 0 0,0
21.04.2019 20:00:00 17,0 3,5 14,7 6 3 8 4 ENE 1012,6 45 2 0,0
21.04.2019 19:00:00 17,9 5,7 18,8 3 2 11 6 E 1012,9 - 25 0,0
21.04.2019 18:00:00 18,7 4,1 18,6 5 3 16 9 N 1013,5 - 0 0,0
21.04.2019 17:00:00 19,5 3,3 25,0 7 4 20 11 NE 1014,0 45 22 0,0
21.04.2019 16:00:00 18,8 5,4 21,4 12 6 24 13 E 1014,7 - 3 0,0
21.04.2019 15:00:00 17,9 4,5 19,9 4 2 16 9 NNW 1015,7 - 0 0,0
21.04.2019 14:00:00 17,4 2,0 19,1 3 2 24 13 NE 1017,0 35 0 0,0
21.04.2019 13:00:00 18,1 4,8 22,4 7 4 22 12 E 1017,1 - 1 0,0
21.04.2019 12:00:00 16,6 2,9 23,5 4 2 12 6 E 1018,3 - 14 0,0
21.04.2019 11:00:00 15,1 3,3 18,8 4 2 11 6 SW 1018,8 40 0 0,0
21.04.2019 10:00:00 13,0 3,8 15,1 3 2 9 5 NNE 1019,4 - 0 0,0
21.04.2019 09:00:00 11,6 4,2 11,5 3 2 5 3 NE 1019,8 - 0 0,0
21.04.2019 08:00:00 10,1 5,1 8,9 2 1 5 3 N 1020,1 35 0 0,0
21.04.2019 07:00:00 7,9 4,7 4,4 3 2 5 3 NNW 1020,3 - 0 0,0
21.04.2019 06:00:00 8,1 4,3 5,2 3 1 5 3 SW 1020,1 - 0 0,0
21.04.2019 05:00:00 9,2 5,1 5,8 2 1 7 4 NNW 1020,4 - 0 0,0
21.04.2019 04:00:00 9,9 4,9 6,3 2 1 5 3 NW 1020,6 - 0 0,0
21.04.2019 03:00:00 10,0 4,8 6,2 1 1 8 5 NW 1020,7 - 0 0,0
21.04.2019 02:00:00 11,1 4,7 7,3 3 2 5 3 WSW 1020,9 - 0 0,0
21.04.2019 01:00:00 12,4 4,8 8,7 4 2 6 3 WNW 1021,1 - 0 0,0
21.04.2019 00:00:00 13,6 4,8 9,7 4 2 13 7 SW 1021,0 - 0 0,0
20.04.2019 23:00:00 12,2 5,8 9,8 6 4 11 6 N 1021,3 25 0 0,0
20.04.2019 22:00:00 14,8 4,9 10,7 2 1 6 3 WSW 1020,7 - 0 0,0
20.04.2019 21:00:00 16,9 3,9 12,0 4 2 14 8 N 1020,3 - 0 0,0
20.04.2019 20:00:00 20,0 3,5 17,6 10 6 26 14 NE 1019,6 50 53 0,0
20.04.2019 19:00:00 21,4 3,2 22,6 15 8 27 15 NNE 1019,3 - 60 0,0
20.04.2019 18:00:00 22,0 2,9 24,5 16 9 29 15 NNE 1019,8 - 60 0,0
20.04.2019 17:00:00 22,1 2,4 25,8 17 9 27 14 NE 1020,3 40 60 0,0
20.04.2019 16:00:00 22,0 0,9 26,4 19 11 28 15 NE 1021,0 - 60 0,0
20.04.2019 15:00:00 21,1 2,4 26,4 17 9 25 13 NE 1021,9 - 60 0,0
20.04.2019 14:00:00 20,4 4,8 26,1 15 8 29 15 NE 1022,8 45 60 0,0
20.04.2019 13:00:00 19,0 5,1 25,7 14 7 22 12 NE 1023,6 - 60 0,0
20.04.2019 12:00:00 18,1 5,3 23,5 16 9 24 13 ENE 1024,2 - 60 0,0
20.04.2019 11:00:00 16,6 5,3 22,2 12 6 21 11 ENE 1024,8 40 60 0,0
20.04.2019 10:00:00 15,4 6,0 21,2 7 4 12 6 E 1025,2 - 60 0,0
20.04.2019 09:00:00 13,3 6,5 17,9 2 1 6 4 W 1025,9 - 60 0,0
20.04.2019 08:00:00 10,1 6,7 11,3 3 1 4 2 WSW 1026,6 50 32 0,0
20.04.2019 07:00:00 8,1 5,2 4,9 1 1 8 4 WNW 1026,8 - 0 0,0
20.04.2019 06:00:00 7,8 5,0 5,0 5 3 9 5 NW 1026,6 - 0 0,0
20.04.2019 05:00:00 8,8 5,4 6,5 3 2 6 4 W 1026,4 - 0 0,0
20.04.2019 04:00:00 10,7 6,1 7,3 7 4 8 5 WNW 1026,0 - 0 0,0
20.04.2019 03:00:00 11,2 6,4 9,3 3 1 5 3 WSW 1025,9 - 0 0,0
20.04.2019 02:00:00 11,6 6,3 8,5 1 1 5 3 E 1026,2 - 0 0,0
20.04.2019 01:00:00 12,4 6,0 8,7 4 2 7 4 SSW 1026,2 - 0 0,0
20.04.2019 00:00:00 12,9 6,2 9,9 6 3 8 5 NW 1026,3 - 0 0,0
19.04.2019 23:00:00 14,3 5,5 10,1 4 2 7 4 SSE 1025,9 45 0 0,0
19.04.2019 22:00:00 15,3 5,2 10,9 4 2 19 10 N 1025,5 - 0 0,0
19.04.2019 21:00:00 17,4 4,3 13,8 7 4 13 7 N 1025,0 - 0 0,0
19.04.2019 20:00:00 19,7 2,6 16,8 6 3 8 5 ENE 1023,8 45 0 0,0
19.04.2019 19:00:00 20,5 2,3 21,2 3 2 9 5 N 1023,4 - 7 0,0
19.04.2019 18:00:00 20,5 4,5 20,2 7 4 18 10 NE 1023,5 - 0 0,0
19.04.2019 17:00:00 21,0 0,7 22,6 13 7 25 14 ENE 1023,3 40 30 0,0
19.04.2019 16:00:00 21,3 2,9 24,0 13 7 24 13 NE 1023,3 - 41 0,0
19.04.2019 15:00:00 21,4 4,9 28,9 16 8 22 12 NE 1023,9 - 57 0,0
19.04.2019 14:00:00 20,5 4,0 26,8 9 5 16 9 E 1024,2 35 60 0,0

tt = temperature
td = dewpoint
tt 5cm = temperature 5cm
ff = wind speed
fx = gusts
dd = wind direction
ppp = reduced air pressure
vv = visibility
sd = sunshine duration
rr = precipitation

Next stations